Retour au catalogue

CZ-6A DEB

ActifPO
NORAD 61081·DEBRIS·🇨🇳 China

Lancé Aug 6, 2024 depuis Taiyuan Satellite Launch Center

Loading…

Prochains Passages (prochaines 24 heures)

TLE

FraisSource: Space-Track

Époque: Sep 14, 2026, 10:22 UTC

1 61081U 24140MX  26257.43240950  .00002258  00000-0  39817-3 0  9994
2 61081  88.9759 256.7556 0108927 287.3412  71.5911 14.63362814109321

Suivez CZ-6A DEB en temps réel avec AllMySat

Download on the App Store